Torna al catalogo

STARLINK-37484

AttivoComunicazioniVLEO
NORAD 69527·PAYLOAD·🇺🇸 United States

Lanciato Jun 12, 2026 da Cape Canaveral Space Force Station

Loading…

Prossimi Passaggi (prossime 24 ore)

TLE

AggiornatoSource: CelesTrak SupGP

Epoca: Sep 14, 2026, 21:01 UTC

1 69527C 26133V   26257.87618056  .00057145  00000+0  16889-2 0  2579
2 69527  53.1566 255.7457 0001183  88.5530 286.1796 15.34352531    16

Traccia STARLINK-37484 in tempo reale con AllMySat

Download on the App Store